Regional Weather Roundup
Issued by NWS

Home | Current Version | Previous Version | Graphics & Text | Print | Product List | Glossary On
Versions: 1 2 3 4 5 6 7 8 9 10 11 12 13 14 15 16 17 18 19 20 21 22 23 24 25 26 27 28 29 30 31 32 33 34 35 36 37 38 39 40 41 42 43 44 45 46 47 48 49 50
000
ASUS43 KDMX 211301
RWRIA

WEATHER ROUNDUP FOR IOWA
NATIONAL WEATHER SERVICE DES MOINES IA
800 AM CDT MON AUG 21 2017

NOTE: "FAIR" INDICATES FEW OR NO CLOUDS BELOW 12,000 FEET WITH NO
SIGNIFICANT WEATHER AND/OR OBSTRUCTIONS TO VISIBILITY.

* - THESE STATIONS ARE NOT NWS STATIONS...THUS NOT UNDER NWS
QUALITY CONTROL.  THEY ALSO DO NOT REPORT WEATHER SUCH
AS PRECIPITATION OR FOG.

IAZ001>003-012>014-020>022-031>034-043>046-211400-
   NORTHWEST IOWA

CITY           SKY/WX    TMP DP  RH WIND       PRES   REMARKS
CARROLL *      CLOUDY    66  64  94 SE14      30.01S
DENISON *      CLOUDY    66  63  88 SE12      30.03
LE MARS *      CLOUDY   104 N/A N/A SE9       29.98S
ORANGE CITY *  CLOUDY    70  70 100 S7        29.99F
SHELDON *      CLOUDY    68  66  94 S6        29.98S
SIOUX CITY     CLOUDY    69  65  86 S14       29.99R
SPENCER        SUNNY     67  65  93 S9        29.99F
STORM LAKE *   CLOUDY    66  63  88 S14G23    29.99F
$$

IAZ055>058-069>071-079>083-090>094-211400-
   SOUTHWEST IOWA

CITY           SKY/WX    TMP DP  RH WIND       PRES   REMARKS
ATLANTIC *     RAIN      66  64  94 SE9G21    30.09R
AUDUBON *      LGT RAIN  66  63  88 SE10G18   30.06R
CLARINDA *     CLOUDY    70  64  83 VRB6G16   30.10R
COUNCIL BLFS * LGT RAIN  66  66 100 E18G37    30.03F
CRESTON *      CLOUDY    66  66 100 E14G21    30.10S
HARLAN  *      CLOUDY    68  64  88 SE17      30.10R
LAMONI         CLOUDY    69  65  86 NE12G17   30.11F
RED OAK *      CLOUDY    68  66  94 NE12      30.10R
SHENANDOAH *   CLOUDY    72  64  78 E13       30.06R
$$

IAZ047>049-059>061-072>074-084-211400-
   CENTRAL IOWA

CITY           SKY/WX    TMP DP  RH WIND       PRES   REMARKS
AMES           LGT RAIN  67  65  93 S17G25    29.97F
ANKENY *       CLOUDY    66  64  94 SE6       30.10F
BOONE *        DRIZZLE   68  63  83 S21G33    29.92F
CHARITON *     CLOUDY    68  64  88 E8        30.11F
DES MOINES     LGT RAIN  68  65  90 SE7       30.10F
GRINNELL*      LGT RAIN  66  64  92 NE7       30.10F
KNOXVILLE *    LGT RAIN  68  66  94 CALM      30.10F
MARSHALLTOWN   CLOUDY    67  65  93 SE12      30.00F
NEWTON *       CLOUDY    66  64  94 NE3       30.11F
PELLA *        LGT RAIN  67  65  95 CALM      30.12F
PERRY *        PTSUNNY   67  65  92 SE12G23   30.02F
$$

IAZ004>006-015-016-023>025-035-036-211400-
   NORTH CENTRAL IOWA

CITY           SKY/WX    TMP DP  RH WIND       PRES   REMARKS
ALGONA *         N/A     66  66 100 S7        30.00R
CLARION *      CLOUDY    70  61  73 S10       29.98S
ESTHERVILLE    SUNNY     66  66 100 S8        29.98F
FORT DODGE *   CLOUDY    68  61  77 NW7       30.01R
MASON CITY     CLOUDY    66  60  81 N3        30.00
FOREST CITY *    N/A     68  59  73 S7        30.00F
WEBSTER CITY * CLOUDY    68  61  77 NW6G13    29.96R
IOWA FALLS *     N/A     71  59  66 SE12G20   29.95F
$$

IAZ007>011-017>019-026>030-037>042-050>054-066-211400-
   NORTHEAST IOWA

CITY           SKY/WX    TMP DP  RH WIND       PRES   REMARKS
CEDAR RAPIDS   LGT RAIN  67  66  97 N3        30.11F
CHARLES CITY * CLOUDY    68  61  77 VRB6G12   29.98R
CLINTON *      CLOUDY    68  68 100 NW7       30.12R FOG
DECORAH *      CLOUDY    68  66  94 NE6       30.03F
DUBUQUE        CLOUDY    69  67  93 W7        30.09F
MONTICELLO *   CLOUDY    68  64  88 SW10G17   30.08F
OELWEIN *      CLOUDY    68  63  83 S32G41    29.92F
WATERLOO       CLOUDY    67  62  84 SE30G36   29.90F
$$

IAZ064-065-067-068-078-211400-
   EAST CENTRAL IOWA

CITY           SKY/WX    TMP DP  RH WIND       PRES   REMARKS
DAVENPORT      RAIN      69  67  93 SW7       30.16R FOG
IOWA CITY      LGT RAIN  71  69  93 NW15      30.11F
MUSCATINE *    LGT RAIN  70  66  88 NE6       30.11F
QUAD CITIES    RAIN      72  66  81 NW9G20    30.11F
$$

IAZ062-063-075>077-085>089-095>099-211400-
   SOUTHEAST IOWA

CITY           SKY/WX    TMP DP  RH WIND       PRES   REMARKS
BURLINGTON     CLOUDY    70  69  97 N6        30.10F
FAIRFIELD *    CLOUDY    68  66  94 CALM      30.11F
FORT MADISON * LGT RAIN  70  70 100 NE6       30.11F
KEOKUK *       LGT RAIN  70  68  94 NE5       30.11R VSB 1
OSKALOOSA *    LGT RAIN  67  65  96 CALM      30.14R
OTTUMWA        LGT RAIN  70  67  90 NW6       30.14R
$$

ABBREVIATIONS USED IN REMARKS
   TC - TEMPERATURES IN CELSIUS
  WCI - WIND CHILL INDEX
   HX - HEAT INDEX
  VSB - VISIBILITY
$$




USA.gov is the U.S. government's official web portal to all federal, state and local government web resources and services.